Location: Hysolar-Haus
(48.7436°N, 9.0965°E)
Time: 19:18:48
(UTC+00:00)

Transit 2A Rocket - Visible Passes

Search period start: 11 November 2019 00:00
Search period end: 21 November 2019 00:00
Orbit: 594 x 909 km, 66.7° (Epoch: 10 November)

Date Brightness Start Highest point End Pass type
(mag) Time Alt. Az. Time Alt. Az. Time Alt. Az.
11 Nov 7.0 05:07:50 10° N 05:09:39 12° NNE 05:11:27 10° NE visible
13 Nov 6.6 05:24:30 10° NNW 05:27:46 20° NE 05:31:05 10° E visible
14 Nov 7.0 04:42:22 10° N 04:44:52 15° NNE 04:47:22 10° ENE visible
15 Nov 7.1 04:00:32 10° N 04:01:52 11° NNE 04:03:11 10° NE visible
15 Nov 5.7 05:41:32 10° NNW 05:45:36 39° NE 05:49:48 10° ESE visible
16 Nov 6.3 04:59:13 10° NNW 05:02:53 26° NE 05:06:37 10° E visible
17 Nov 6.8 04:17:34 12° N 04:20:03 18° NE 04:23:07 10° E visible
17 Nov 4.6 05:58:49 10° NW 06:03:10 89° SW 06:07:41 10° SSE visible
18 Nov 7.1 03:36:20 13° NNE 03:37:07 13° NNE 03:39:17 10° ENE visible
18 Nov 5.2 05:16:21 10° NNW 05:20:36 54° NE 05:25:01 10° SE visible
19 Nov 5.9 04:35:05 16° NNW 04:37:57 34° NE 04:42:01 10° ESE visible
20 Nov 6.5 03:53:57 20° NNE 03:55:11 23° NE 03:58:44 10° E visible
20 Nov 4.6 05:33:53 11° NW 05:38:03 63° WSW 05:42:32 10° SSE visible
